Fairbanks Eiels, AK

2:21 AM AKDT on August 20, 2019 (GMT -0800)
Eielson Air Force Base

Weather History for PAEI - July, 2019

Change the Weather History Date:

Thursday, July 18, 2019

  Actual Average Record
Temperature  
Mean Temperature 64 °F -  
Max Temperature 75 °F 69 °F 82 °F (1993)
Min Temperature 52 °F 51 °F 38 °F (1959)
Degree Days  
Heating Degree Days 2    
Growing Degree Days 14 (Base 50)    
Moisture  
Dew Point 56 °F    
Average Humidity 73    
Maximum Humidity 90    
Minimum Humidity 53    
Precipitation  
Precipitation 0.00 in - - ()
Sea Level Pressure  
Sea Level Pressure 29.81 in    
Wind  
Wind Speed 5 mph (SW)    
Max Wind Speed 9 mph    
Max Gust Speed -    
Visibility 10 miles    
Events Thunderstorm    
Averages and records for this station are not official NWS values.
T = Trace of Precipitation, MM = Missing Value Source: NWS Daily Summary

Daily Weather History Graph

Daily Weather History Graph

Search for Another Location

Airport or City:

Astronomy

Jul. 18, 2019 Rise Set
Actual Time 4:02 AM AKDT 11:44 PM AKDT
Civil Twilight 2:27 AM AKDT 1:22 AM AKDT
Nautical Twilight Sun does not set Sun does not set
Astronomical Twilight Sun does not set Sun does not set
Moon 12:17 AM AKDT (7/18) 6:09 AM AKDT (7/18)
Length of Visible Light 22h 55m
Length of Day
19h 41m
Waning Gibbous, 96% of the Moon is Illuminated
Jul 18
Waning Gibbous
Jul 24
Last Quarter
Jul 31
New
Aug 7
First Quarter
Aug 15
Full

Hourly Weather History & Observations

Time (AKDT) Temp. Dew Point Humidity Pressure Visibility Wind Dir Wind Speed Gust Speed Precip Events Conditions
12:56 AM 61.0 °F 54.1 °F 78% 29.70 in 10.0 mi SSE 4.6 mph - N/A   Overcast
1:56 AM 57.7 °F 52.5 °F 83% 29.72 in 10.0 mi South 5.8 mph - N/A   Mostly Cloudy
2:56 AM 56.1 °F 52.3 °F 87% 29.73 in 10.0 mi SSE 6.9 mph - N/A   Scattered Clouds
3:56 AM 52.9 °F 50.0 °F 90% 29.74 in 10.0 mi SSE 8.1 mph - N/A   Clear
4:56 AM 52.9 °F 50.0 °F 90% 29.76 in 10.0 mi Calm Calm - N/A   Scattered Clouds
5:56 AM 54.9 °F 51.6 °F 89% 29.78 in 10.0 mi SSE 5.8 mph - N/A   Mostly Cloudy
6:56 AM 59.7 °F 55.2 °F 85% 29.79 in 10.0 mi SSE 3.5 mph - N/A   Mostly Cloudy
7:56 AM 61.3 °F 55.4 °F 81% 29.80 in 10.0 mi South 3.5 mph - N/A   Scattered Clouds
8:38 AM 64.4 °F 57.2 °F 77% 29.80 in 10.0 mi Variable 4.6 mph - N/A   Mostly Cloudy
8:53 AM 64.4 °F 57.2 °F 77% 29.82 in 10.0 mi Variable 4.6 mph - N/A   Mostly Cloudy
8:56 AM 63.7 °F 57.0 °F 79% 29.82 in 10.0 mi West 5.8 mph - N/A   Mostly Cloudy
9:56 AM 63.1 °F 57.2 °F 81% 29.83 in 10.0 mi West 5.8 mph - N/A   Mostly Cloudy
10:56 AM 64.4 °F 57.7 °F 79% 29.84 in 10.0 mi NW 3.5 mph - N/A   Mostly Cloudy
11:26 AM 66.2 °F 57.2 °F 73% 29.83 in 10.0 mi West 4.6 mph - N/A   Mostly Cloudy
11:52 AM 66.2 °F 57.2 °F 73% 29.84 in 10.0 mi Variable 6.9 mph - N/A   Mostly Cloudy
11:56 AM 66.9 °F 57.2 °F 71% 29.84 in 10.0 mi West 6.9 mph - N/A   Mostly Cloudy
12:48 PM 66.2 °F 57.2 °F 73% 29.84 in 10.0 mi Variable 6.9 mph - N/A   Mostly Cloudy
12:56 PM 67.3 °F 57.6 °F 71% 29.84 in 10.0 mi West 6.9 mph - N/A   Mostly Cloudy
1:29 PM 69.8 °F 57.2 °F 64% 29.84 in 10.0 mi West 9.2 mph - N/A   Scattered Clouds
1:56 PM 70.0 °F 57.6 °F 65% 29.84 in 10.0 mi WSW 9.2 mph - N/A   Scattered Clouds
2:56 PM 71.4 °F 57.7 °F 62% 29.83 in 10.0 mi West 5.8 mph - N/A   Scattered Clouds
3:56 PM 72.1 °F 56.1 °F 57% 29.82 in 10.0 mi West 4.6 mph - N/A   Scattered Clouds
4:56 PM 73.9 °F 55.8 °F 53% 29.81 in 10.0 mi SSW 3.5 mph - N/A   Scattered Clouds
5:56 PM 73.4 °F 58.6 °F 60% 29.81 in 10.0 mi Calm Calm - N/A   Mostly Cloudy
6:56 PM 75.4 °F 58.1 °F 55% 29.81 in 10.0 mi WSW 6.9 mph - N/A   Scattered Clouds
7:30 PM 75.2 °F 59.0 °F 57% 29.80 in 10.0 mi Variable 4.6 mph - N/A Thunderstorm Thunderstorm
7:56 PM 74.7 °F 57.9 °F 56% 29.81 in 10.0 mi NW 9.2 mph - N/A Thunderstorm Thunderstorm
8:49 PM 69.8 °F 57.2 °F 64% 29.82 in 10.0 mi Calm Calm - N/A   Mostly Cloudy
8:56 PM 69.3 °F 57.7 °F 67% 29.82 in 10.0 mi Calm Calm - N/A   Mostly Cloudy
9:56 PM 68.2 °F 58.5 °F 71% 29.83 in 10.0 mi Calm Calm - N/A   Mostly Cloudy
10:56 PM 66.0 °F 57.6 °F 74% 29.84 in 10.0 mi SW 3.5 mph - N/A   Clear
11:41 PM 64.4 °F 57.2 °F 77% 29.85 in 10.0 mi WSW 3.5 mph - N/A   Mostly Cloudy
11:56 PM 64.0 °F 56.7 °F 77% 29.85 in 10.0 mi SW 4.6 mph - N/A   Mostly Cloudy